CAPE
823 419 350 166 39 3 3 2 0 0 0 0 0 0 0 0 0 0 0 0 0 0 0 0 0 3 0 1 5 5 3 4 5 2 2 6 13 15 4 4 4 4 4
190 54 4 3 3 1 0 0 0 0 0 0 0 0 0 0 0 0 0 0 0 0 0 0 0 0 2 4 4 2 5 4 6 5 4 8 8 7 4 2 1 4 3
1 1 1 2 1 2 1 0 0 0 0 0 0 0 0 0 0 0 0 0 0 0 0 0 0 1 1 2 2 8 2 1 5 10 6 8 3 8 4 5 3 0 2
2 2 4 5 4 3 2 2 1 1 0 0 0 0 0 0 0 0 0 0 0 0 0 0 0 0 0 1 1 2 4 1 7 1 5 8 8 6 4 1 0 0 2
3 4 5 2 3 1 1 2 3 0 0 0 0 0 0 0 0 0 0 0 0 0 0 0 0 0 0 0 0 2 5 6 7 9 4 10 5 3 2 2 3 3 4
3 7 4 5 1 3 0 1 0 0 0 0 0 0 0 0 0 0 0 0 0 0 0 0 1 0 0 0 1 1 1 3 5 4 5 6 3 3 5 3 4 5 4
0 3 3 1 5 5 2 0 0 0 0 0 1 1 0 0 0 0 0 0 1 3 2 2 1 1 1 1 0 0 1 0 0 0 2 5 4 2 2 3 4 4 5
3 3 3 3 2 0 0 0 0 0 0 0 0 0 0 0 0 0 0 3 4 4 3 4 3 5 0 0 0 0 0 2 5 0 3 0 3 2 3 4 4 3 4
2 1 0 0 0 0 0 0 0 0 0 0 0 0 3 0 0 0 0 0 0 1 1 1 2 2 0 0 0 4 3 3 0 0 0 0 0 0 1 2 4 3 5
0 0 0 0 0 0 0 0 0 0 0 0 0 0 0 1 0 0 0 0 0 0 2 0 0 0 0 0 0 2 0 0 0 2 2 1 2 0 1 3 1 5 4
0 0 0 0 0 0 0 0 0 0 0 0 0 1 1 0 0 0 0 0 0 0 0 0 1 0 0 0 0 0 0 0 1 1 0 0 0 2 1 2 3 1 2
0 0 0 0 0 0 0 0 0 0 0 0 0 0 0 1 0 0 0 0 0 0 0 0 0 0 0 0 0 0 0 0 0 0 0 3 5 5 1 2 2 1 2
0 0 0 0 0 0 0 0 0 0 0 0 0 0 0 0 0 0 0 0 0 0 0 0 0 0 0 0 0 0 0 0 0 2 5 5 4 2 2 2 2 2 2
0 0 0 0 0 0 0 0 0 0 0 0 0 0 0 0 0 0 0 0 0 0 0 0 0 0 0 0 0 0 0 1 2 3 5 3 2 2 5 2 6 4 4
0 0 0 0 0 0 0 0 0 0 0 0 0 0 0 0 0 0 0 0 0 0 0 0 0 0 0 0 0 0 0 2 2 2 4 4 5 5 5 3 4 3 4
0 0 0 0 0 0 0 0 0 0 0 0 0 0 0 0 0 0 0 0 0 0 0 0 0 0 0 0 0 0 0 1 1 2 2 2 4 7 7 4 4 4 4
0 0 0 0 0 0 0 0 0 0 0 0 0 0 0 0 0 0 0 0 0 0 0 0 0 0 0 0 0 1 1 0 1 1 2 3 3 6 6 6 5 5 3
0 0 0 0 0 0 0 0 0 0 0 0 0 0 0 0 0 0 0 0 0 0 0 0 0 0 0 0 0 0 0 1 1 1 2 3 3 5 6 6 6 7 5
0 0 0 0 0 0 0 0 0 0 0 0 0 0 0 0 0 0 0 0 0 0 0 0 0 0 0 0 0 0 0 1 1 2 2 2 3 3 5 4 5 4 3
0 0 0 0 0 0 0 0 0 0 0 0 0 0 0 0 0 0 0 0 0 0 0 0 0 0 0 0 0 0 0 0 2 1 1 2 2 3 4 4 4 3 1
0 0 0 0 0 0 0 0 0 0 0 0 0 0 0 0 0 0 0 0 0 0 0 0 0 0 0 0 0 0 0 0 2 1 1 1 2 4 4 4 4 3 1
0 0 0 0 0 0 0 0 0 0 0 0 0 0 0 0 0 0 0 0 0 0 0 0 0 0 0 0 0 0 0 0 3 2 1 1 1 2 3 4 5 5 3
0 0 0 0 0 0 0 0 0 0 0 0 0 0 0 0 0 0 0 0 0 0 0 0 0 0 0 0 0 0 0 1 2 2 2 0 1 2 3 4 5 5 6
0 0 0 0 0 0 0 0 0 0 0 0 0 0 0 0 0 0 0 0 0 0 0 0 0 0 0 0 0 0 0 2 1 0 3 1 1 2 3 4 3 4 5
0 0 0 0 0 0 0 0 0 0 0 0 0 0 0 0 0 0 0 0 0 0 0 0 0 0 0 0 0 0 0 1 0 0 0 4 2 1 2 2 3 4 4
0 0 0 0 0 0 0 0 0 0 0 0 0 0 0 0 0 0 0 0 0 0 0 0 0 0 0 0 0 0 0 0 0 0 0 1 0 1 2 3 3 3 4
CIN
-127 -213 -208 -253 -332 0 0 0 0 0 0 0 0 0 0 0 0 0 0 0 0 0 0 0 -1 -1 -2 -2 -1 -2 -2 -2 -1 -2 -2 -1 -2 -1 -2 -1 -1 -1 -2
-332 -455 -25 0 0 0 0 0 0 0 0 0 0 0 0 0 0 0 0 0 0 0 0 -1 0 -1 -1 -1 -1 -2 -1 -2 -1 0 -6 -3 -1 -1 -1 -1 -2 0 -1
0 0 0 0 0 0 0 0 0 0 0 0 0 0 0 0 0 0 0 0 0 0 0 0 -1 -1 -2 -2 -2 -1 -2 -2 -1 0 -1 -2 -2 -3 -2 -1 -1 -1 -2
0 0 0 0 0 0 0 0 0 0 0 0 0 0 0 0 0 0 0 0 0 0 0 -1 0 -1 -1 -1 -1 -2 -1 -1 -1 -3 -1 -1 -1 -3 -2 -2 -1 -2 -1
0 0 0 0 0 0 0 0 0 0 0 0 0 0 0 0 0 0 0 0 0 0 0 0 0 0 0 0 0 -1 -1 -1 -1 -1 -1 -1 -1 -2 -1 -1 0 0 0
0 0 0 0 0 0 0 0 0 0 0 0 0 0 0 0 0 0 0 0 0 0 0 -1 -1 0 0 0 -4 -2 -1 0 0 0 0 -1 0 0 -1 0 0 0 0
0 0 0 0 0 0 0 0 0 0 0 0 0 -1 -1 0 0 0 0 -1 -1 -1 -1 -1 -1 -1 -1 -1 0 -2 0 -1 0 0 0 0 0 0 0 0 0 0 0
0 0 0 0 0 0 0 0 0 0 -1 0 -1 -1 -1 0 0 0 0 0 0 0 0 0 -1 -1 0 0 0 -2 -1 -1 -2 -2 -1 -1 0 0 0 0 0 0 0
0 0 -1 0 0 0 0 0 0 -1 -1 0 0 -1 -1 0 0 0 0 0 -1 -1 -1 -1 -1 0 0 0 0 -1 -1 -1 -1 -2 0 0 0 0 0 0 0 0 0
0 0 0 0 0 0 0 0 0 0 0 0 0 0 0 -1 0 0 0 0 0 0 -1 -1 0 0 0 0 0 -1 -1 -1 -1 -2 -1 -1 -1 0 0 0 0 0 0
0 0 0 0 0 0 0 0 0 0 0 0 -1 -1 -1 0 0 0 0 0 0 0 0 -1 -1 0 0 0 0 -1 0 0 -1 -1 -1 -1 0 0 0 0 0 0 0
0 0 0 0 0 0 0 0 0 0 -1 -1 -1 0 0 -1 0 0 0 0 0 0 0 -1 -1 0 0 0 0 0 0 0 0 0 0 0 0 0 0 0 0 0 0
0 0 0 0 0 0 0 0 0 0 0 0 0 0 0 0 0 0 0 0 0 0 0 0 0 0 0 0 0 0 0 0 0 0 0 0 0 0 0 0 0 0 0
0 0 0 0 0 0 0 0 0 0 0 0 0 0 0 0 0 0 0 0 0 0 0 0 0 0 0 -1 -2 0 0 0 0 0 0 0 0 0 0 0 0 0 0
0 0 0 0 0 0 0 0 0 0 0 0 0 0 0 0 0 0 0 0 0 0 0 0 0 0 0 0 0 0 0 0 0 0 0 0 0 0 0 0 0 0 0
0 0 0 0 0 0 0 0 0 0 0 0 0 0 0 0 0 0 0 0 0 0 0 0 0 0 0 0 0 0 0 0 0 0 0 0 0 0 0 0 0 0 0
0 0 0 0 0 0 0 0 0 0 0 0 0 0 0 0 0 0 0 0 0 0 0 0 0 0 0 0 0 0 0 0 0 0 0 0 0 0 0 0 0 0 0
0 0 0 0 0 0 0 0 0 0 0 0 0 0 0 0 0 0 0 0 0 0 0 0 0 0 0 0 0 0 0 0 0 0 0 0 0 0 0 0 0 0 0
0 0 0 0 0 0 0 0 0 0 0 0 0 0 0 0 0 0 0 0 0 0 0 0 0 0 0 0 0 0 0 0 0 0 0 0 0 0 0 0 0 0 0
0 0 0 0 0 0 0 0 0 0 0 0 0 0 0 0 0 0 0 0 0 0 0 0 0 0 0 0 0 0 0 0 0 0 0 0 0 0 0 0 0 0 0
0 0 0 0 0 0 0 0 0 0 0 0 0 0 0 0 0 0 0 0 0 0 0 0 0 0 0 0 0 0 0 0 0 0 0 0 0 0 0 0 0 0 0
0 0 0 0 0 0 0 0 0 0 0 0 0 0 0 0 0 0 0 0 0 0 0 0 0 0 0 0 0 0 0 0 0 0 0 0 0 0 0 0 0 0 0
0 0 0 0 0 0 0 0 0 0 0 0 0 0 0 0 0 0 0 0 0 0 0 0 0 0 0 0 0 0 0 0 0 0 0 0 0 0 0 0 0 0 0
0 0 0 0 0 0 0 0 0 0 0 0 0 0 0 0 0 0 0 0 0 0 0 0 0 0 0 0 0 0 0 0 0 0 0 0 0 0 0 0 0 0 0
0 0 0 0 0 0 0 0 0 0 0 0 0 0 0 0 0 0 0 0 0 0 0 0 0 0 0 0 0 0 0 0 0 0 0 0 0 0 0 0 0 0 0
0 0 0 0 0 0 0 0 0 0 0 0 0 0 0 0 0 0 0 0 0 0 0 0 0 0 0 0 0 0 0 0 0 0 0 0 0 0 0 0 0 0 0
Wind_Speed
12 12 11 11 9 8 8 7 5 4 5 5 7 9 11 15 17 20 23 26 30 29 30 32 32 29 30 31 32 30 30 32 35 35 36 35 37 38 39 38 37 35 35
11 10 10 10 9 8 7 6 5 3 7 8 9 10 12 15 19 20 24 26 28 30 32 31 30 31 33 31 31 31 31 31 33 36 34 36 38 39 38 41 38 36 35
8 10 10 11 10 9 7 6 7 7 6 11 10 13 15 18 19 20 25 27 28 29 29 29 31 33 34 32 31 31 31 32 32 33 37 37 38 38 41 39 38 35 34
8 8 10 12 12 11 11 8 8 6 10 10 15 15 15 18 21 23 25 28 28 27 27 29 32 33 33 33 33 32 32 34 33 35 36 38 38 39 41 41 40 36 37
7 8 9 9 10 9 11 12 10 12 12 12 12 16 18 21 25 28 29 28 28 28 28 30 30 31 30 31 33 33 33 33 34 35 36 37 39 42 41 39 38 38 36
7 8 8 8 8 7 10 9 12 12 13 16 17 18 20 23 27 29 31 30 29 28 30 31 31 29 32 30 28 29 29 30 30 33 35 36 38 39 38 38 37 40 36
9 9 9 9 9 10 9 9 9 13 13 16 16 18 22 26 30 31 30 27 28 29 30 31 32 33 33 34 35 32 29 23 22 28 30 34 37 38 38 37 34 34 33
9 9 10 11 12 11 10 9 10 12 14 15 17 21 23 27 30 31 30 26 28 29 29 30 32 33 34 39 36 33 31 29 28 26 31 32 32 37 34 29 30 29 30
9 10 10 10 11 10 10 10 12 13 14 17 20 22 23 26 29 31 30 27 29 29 29 30 32 35 39 37 33 33 32 30 29 30 25 25 30 33 30 28 29 32 33
8 9 9 11 12 10 12 12 13 14 17 18 20 21 23 23 29 31 32 30 30 30 29 30 31 37 36 34 33 31 32 32 33 30 30 31 32 33 30 27 28 31 30
10 11 11 12 11 11 11 12 15 16 17 18 19 20 22 25 27 31 33 30 32 31 32 32 31 36 34 32 31 32 32 31 29 30 31 32 32 32 31 29 27 27 25
9 10 10 11 11 11 11 15 16 16 17 18 20 21 22 24 27 30 30 32 34 31 32 31 32 33 31 29 32 33 35 34 33 34 34 32 33 34 33 31 26 23 16
8 8 9 10 11 13 13 14 16 17 18 20 21 22 24 26 29 31 29 31 33 32 31 29 28 28 30 30 31 36 36 35 36 37 33 31 29 26 24 27 29 22 15
8 8 8 9 10 12 14 16 17 18 19 20 22 23 24 27 30 31 33 34 34 33 31 30 30 29 29 32 33 35 36 36 37 35 34 26 22 25 29 28 23 18 12
14 14 11 8 11 14 16 17 18 20 20 21 23 24 26 27 30 31 31 34 34 32 31 32 33 33 33 34 34 37 38 38 38 38 37 25 20 23 20 15 15 8 11
14 14 12 11 12 13 15 17 20 20 21 23 24 25 24 27 29 30 29 31 34 34 34 35 35 34 34 34 35 37 37 38 36 36 35 25 10 10 9 9 10 9 9
14 14 14 13 13 14 15 16 16 19 22 23 24 25 25 27 30 30 31 28 32 35 37 37 36 35 35 34 35 36 36 34 30 29 9 10 8 8 9 7 7 9 8
13 13 14 14 14 15 16 17 18 18 19 20 23 24 25 26 29 31 33 31 34 36 36 37 37 36 35 34 34 34 33 31 28 20 13 13 11 9 8 6 4 5 8
14 14 14 14 15 15 16 17 18 19 20 20 21 21 24 23 25 29 32 33 34 35 36 37 37 36 35 34 32 32 31 28 26 17 14 15 13 10 8 5 3 1 4
13 13 14 14 15 16 16 17 18 19 20 21 23 24 25 26 28 30 32 33 33 34 35 35 36 36 35 34 32 32 29 28 26 20 16 15 10 7 6 4 2 1 1
13 14 14 15 15 16 17 17 18 18 19 20 23 24 24 26 28 29 30 32 33 34 35 35 35 35 34 33 32 31 29 26 25 21 19 16 14 11 10 5 3 3 2
12 13 14 15 15 16 17 17 18 19 19 20 21 23 24 25 27 28 29 30 31 32 32 34 34 34 34 33 33 30 29 26 24 22 22 16 14 14 12 9 8 5 2
12 13 14 15 16 16 17 17 18 18 19 20 21 23 24 25 26 27 28 29 30 31 31 32 33 34 33 32 32 31 29 27 23 23 22 21 17 16 16 12 10 10 8
12 13 14 15 16 16 16 17 18 19 19 20 21 22 23 24 25 26 27 28 29 29 30 31 32 34 32 31 31 31 30 27 24 22 21 22 20 17 15 16 15 13 11
13 14 15 15 15 16 16 17 18 18 19 20 21 22 23 24 25 26 27 28 28 29 29 30 32 32 33 31 32 31 31 28 26 24 20 23 23 21 19 15 18 17 16
13 14 14 14 15 16 16 17 18 18 19 20 20 21 22 23 24 25 26 27 28 28 29 29 31 31 32 33 32 32 31 29 28 27 24 25 25 21 22 22 20 19 21
Wind_Direction
300 308 320 327 335 340 341 347 353 1 359 320 337 325 322 318 326 329 331 330 329 334 335 333 336 343 341 338 338 340 339 338 335 337 340 341 340 339 339 340 338 337 337
314 330 342 350 356 359 0 15 6 348 5 346 327 314 325 332 328 336 334 335 337 334 334 339 343 340 337 339 340 339 338 340 340 336 339 340 338 340 340 338 338 337 336
346 353 356 359 3 6 17 21 348 328 356 321 320 317 330 325 337 341 335 336 336 337 343 344 341 337 337 340 341 339 340 340 340 338 337 338 338 341 339 339 339 339 338
3 2 4 8 10 6 10 12 22 347 333 325 302 319 343 344 341 340 338 336 339 343 346 343 339 339 340 341 340 339 341 340 340 338 338 337 338 340 339 339 340 341 337
2 1 360 17 18 29 13 343 342 344 335 342 346 340 337 338 331 333 334 337 340 342 345 342 341 342 344 343 341 341 342 341 339 340 338 338 338 338 340 343 341 339 338
4 356 3 16 14 16 11 349 342 349 339 315 328 337 336 339 337 336 333 336 339 343 342 340 342 347 344 346 348 345 343 340 341 339 338 339 338 340 342 342 341 338 339
33 40 36 30 15 11 10 5 341 329 331 337 341 346 343 338 334 336 339 344 345 343 341 344 344 344 346 346 345 344 342 337 335 337 340 339 339 341 341 341 342 342 341
21 19 25 30 29 39 23 355 346 341 346 359 354 343 342 341 340 341 343 350 348 346 348 348 348 347 349 344 346 347 347 348 347 346 340 341 343 342 343 345 345 345 344
33 28 24 27 37 23 22 355 19 25 17 353 347 347 348 352 352 349 344 352 351 351 351 351 350 349 347 351 353 352 353 352 351 346 348 349 348 348 350 350 348 345 343
28 35 24 28 39 17 29 24 7 13 354 346 348 354 355 359 355 352 349 355 354 354 356 356 357 352 355 357 358 359 356 353 350 352 352 350 352 354 355 355 351 347 346
46 47 40 35 16 21 14 351 4 2 3 4 3 3 0 358 2 360 357 359 355 354 354 355 358 357 359 1 4 3 358 354 357 355 354 355 357 358 358 357 355 352 350
51 40 23 6 4 356 352 355 12 15 14 8 3 3 7 5 3 359 3 2 358 359 358 359 357 359 4 8 7 2 357 357 356 353 356 1 0 359 1 2 3 2 3
40 14 353 359 355 352 9 12 7 6 5 4 2 2 3 2 358 359 4 3 360 360 0 4 6 7 9 11 9 1 359 358 352 354 1 6 9 12 13 13 12 19 24
20 356 343 352 353 1 2 2 0 357 0 4 2 360 2 360 358 357 358 358 359 4 7 10 9 11 14 10 7 5 1 356 353 1 1 15 21 19 18 19 23 32 45
45 54 43 17 13 24 15 2 8 1 356 2 358 2 358 0 360 1 7 6 8 11 11 10 10 12 12 9 7 359 356 350 350 343 346 23 26 25 27 28 32 35 60
53 51 45 37 30 30 28 24 18 19 13 11 8 6 15 11 9 11 14 17 13 13 13 12 14 14 9 5 2 353 351 343 337 338 340 26 18 22 351 352 31 51 71
48 50 49 45 39 33 27 25 27 26 27 24 23 22 19 17 13 15 15 19 19 15 16 18 17 13 5 2 357 349 338 332 325 324 7 319 333 335 336 353 27 53 75
46 38 43 38 33 28 25 24 23 23 22 24 26 24 24 21 20 15 10 18 16 19 20 19 13 9 1 353 344 339 332 328 326 319 321 316 317 323 329 336 2 54 74
50 42 35 30 23 22 24 24 23 21 20 18 19 22 19 25 24 20 17 18 18 19 19 13 10 6 358 349 339 334 330 325 325 323 323 318 315 318 323 324 326 334 94
32 25 34 34 32 26 25 26 26 24 21 17 12 9 10 16 14 15 19 21 21 21 13 10 8 3 353 347 337 334 328 327 326 324 325 322 327 334 354 346 332 325 107
43 36 32 30 24 25 24 23 21 21 20 18 16 15 14 15 17 19 22 21 21 16 10 9 5 359 350 344 339 334 331 327 325 323 322 320 319 320 322 337 28 44 49
41 30 25 23 23 23 23 22 22 22 19 16 17 18 20 23 22 22 20 17 15 13 10 8 4 358 349 343 340 334 330 326 324 323 323 319 319 318 316 319 323 331 8
31 28 26 25 27 31 25 22 20 18 17 17 17 19 21 21 21 17 13 9 11 9 6 6 3 355 347 344 341 336 332 326 319 318 320 320 317 316 317 315 317 317 318
26 23 22 22 22 24 21 21 22 18 18 20 20 19 18 17 13 9 6 5 4 2 2 1 1 356 344 340 340 337 334 325 320 319 318 323 324 321 320 320 320 319 317
19 22 27 29 28 26 22 20 20 23 24 21 20 18 16 12 8 4 2 359 359 358 356 357 355 353 348 341 339 336 333 328 324 321 317 325 327 327 325 321 326 327 329
22 25 27 25 22 21 21 23 25 24 22 22 20 17 13 7 3 0 358 356 354 354 353 352 349 347 347 345 338 336 334 329 328 325 322 329 331 327 333 334 332 331 334